GFSSE_sfc_temp_159.txt.gz
Temp
79 79 81 80 80 80 80 80 79 79 79 79 79 79 79 79 79 80 80 79 80 80 81 81 81 81 81 81 80 80 79 80 80 81 80 80 80 80 80 80 81 80 79
80 80 80 80 80 80 80 79 79 79 79 79 79 79 79 79 79 79 79 79 80 81 81 81 81 81 81 80 80 79 79 79 79 80 80 80 80 80 80 80 80 79 78
80 79 81 80 80 80 80 79 79 78 79 79 79 79 79 79 79 79 79 80 80 81 81 81 81 81 80 80 80 79 79 79 79 80 81 77 77 81 81 80 80 79 78
80 78 79 80 80 80 79 79 78 79 79 78 79 79 79 79 79 79 79 80 80 81 81 81 81 80 80 80 79 79 79 79 79 80 78 81 83 80 81 80 80 79 78
80 80 79 80 80 80 79 79 78 78 78 78 79 79 79 79 79 79 79 80 80 81 81 81 80 80 80 79 79 78 78 79 79 80 77 78 78 81 80 80 80 80 79
82 79 79 79 79 79 79 79 78 78 78 78 79 79 79 79 78 79 79 80 80 81 80 80 79 79 79 78 78 78 78 79 80 77 80 82 80 80 80 80 80 80 79
82 78 78 79 79 79 79 79 78 78 78 78 78 78 79 79 78 78 79 79 80 80 80 79 79 78 78 78 78 78 78 79 78 77 82 83 80 78 80 80 79 79 78
80 78 78 79 79 79 79 79 78 78 78 78 78 78 78 78 78 78 78 79 79 79 79 79 78 77 77 77 78 78 78 79 80 78 80 77 77 79 80 79 79 79 79
81 78 77 78 79 79 78 78 78 78 78 77 77 77 78 78 78 78 78 78 78 78 78 78 77 77 77 77 77 77 78 79 74 77 84 79 78 79 80 79 79 79 78
82 79 76 76 79 78 77 78 78 78 77 77 77 77 77 77 78 77 77 77 78 77 77 77 77 77 77 77 77 77 78 79 71 74 77 76 78 80 79 79 78 78 78
83 80 79 76 76 76 76 78 78 78 77 77 77 77 76 75 75 76 76 77 77 77 77 77 77 77 77 77 77 77 78 72 72 76 75 78 78 79 79 78 77 77 76
81 81 81 79 78 78 81 79 76 78 76 75 75 75 74 73 72 78 77 77 77 77 77 77 76 76 77 73 73 76 73 73 75 76 74 78 78 79 78 78 77 77 77
83 82 82 81 80 80 78 76 75 75 74 74 74 73 71 75 75 73 73 73 71 75 72 74 73 73 73 73 75 74 74 75 77 78 77 78 78 79 79 78 78 77 77
83 83 82 82 82 83 77 77 77 76 74 73 74 73 71 74 72 73 72 71 70 70 70 71 71 73 73 76 78 81 82 79 75 71 74 77 77 78 79 78 77 77 77
84 83 81 82 82 79 78 79 78 77 76 76 75 75 73 75 75 75 74 73 72 72 72 72 73 74 75 78 83 83 83 80 75 74 73 77 76 77 78 78 77 77 77
89 84 82 82 83 79 78 80 79 79 77 77 76 76 76 75 77 76 75 74 73 73 76 74 77 76 77 81 82 83 82 81 78 73 72 72 76 75 76 77 77 77 77
87 85 82 82 82 80 80 81 81 80 80 78 78 76 77 75 78 75 75 74 76 76 80 80 80 76 77 77 80 81 78 80 79 76 74 70 72 75 75 76 76 76 76
86 83 82 85 81 81 81 82 83 81 81 81 80 78 78 76 78 75 75 75 75 77 79 78 77 73 73 76 77 77 77 76 76 75 74 71 70 72 73 75 75 76 76
79 82 77 80 82 80 79 82 82 82 82 82 81 79 78 78 78 74 74 74 76 78 74 75 73 71 71 70 73 75 72 72 73 77 74 73 71 70 69 73 75 75 75
77 80 82 77 74 78 74 74 80 81 83 80 82 80 78 78 77 74 73 74 77 75 71 71 71 71 70 69 74 73 70 71 70 70 71 74 72 73 72 70 69 70 74
74 78 77 76 74 73 72 71 78 77 77 77 81 79 77 77 76 73 73 73 72 71 71 71 71 70 68 68 66 66 67 69 70 69 70 70 72 74 73 71 69 69 69
74 76 76 76 75 75 73 72 74 77 76 76 80 79 77 77 75 74 73 72 72 70 70 70 70 67 66 65 62 61 61 64 68 69 68 71 73 69 73 73 70 70 68
81 74 77 76 76 79 78 75 73 75 73 74 77 77 76 77 75 74 73 72 71 70 69 68 67 67 64 64 66 63 59 57 60 64 68 69 67 71 69 68 68 68 67
83 79 80 78 76 80 80 79 74 78 79 76 77 78 75 76 74 74 73 73 71 71 68 66 67 64 64 64 64 67 65 62 57 57 63 63 65 66 64 64 63 65 64
78 80 81 79 77 79 80 80 80 74 72 77 77 73 75 73 73 74 72 71 70 69 66 65 65 65 64 63 61 61 61 61 59 58 54 58 61 62 62 61 61 60 62
74 78 78 77 76 77 78 77 78 75 72 76 75 73 74 72 71 71 70 69 69 67 65 64 64 64 64 60 60 59 59 58 56 55 53 52 53 57 59 60 58 59 59

GFSSE_sfc_temp_162.txt.gz
Temp
77 78 80 80 80 80 80 80 79 79 79 79 79 79 79 79 79 79 79 79 80 80 81 80 80 80 80 80 80 79 79 79 80 80 80 80 80 80 80 80 80 78 78
79 79 80 80 80 80 79 79 79 79 79 79 79 79 79 79 79 79 79 79 80 80 81 81 80 80 80 80 80 79 79 79 79 80 80 80 80 80 80 80 79 78 78
79 79 80 79 80 79 79 79 79 79 79 79 79 79 79 79 79 79 79 79 80 80 81 80 80 80 80 80 79 79 79 79 79 80 80 75 75 80 80 80 79 79 78
79 79 79 79 79 79 79 79 79 79 79 79 78 79 79 79 79 79 79 80 80 80 80 80 80 80 80 79 79 79 79 79 79 80 77 79 81 80 81 80 80 79 78
78 78 79 79 79 79 79 79 78 78 78 79 79 79 79 78 78 78 79 79 80 81 80 80 80 79 79 79 78 78 78 79 79 79 76 76 76 81 80 80 79 79 78
78 78 79 79 79 79 79 79 78 78 78 78 78 79 78 78 78 78 79 79 80 80 80 79 79 78 78 78 78 78 78 79 79 76 78 78 76 80 80 80 80 79 78
77 78 79 79 79 79 79 79 78 78 78 78 78 79 78 78 78 78 79 79 79 80 79 79 78 78 77 78 78 78 78 79 77 76 78 79 78 78 79 79 79 79 78
77 77 78 79 79 78 79 78 78 78 78 78 78 78 78 78 78 78 78 79 79 79 79 78 78 77 77 77 77 77 78 79 77 75 77 75 77 78 80 79 79 79 78
79 77 78 78 79 79 78 78 78 77 77 77 77 77 78 78 78 78 77 78 78 77 77 77 77 77 77 77 77 77 77 79 70 74 80 76 78 78 79 79 79 78 78
77 77 78 80 80 79 77 78 77 77 77 77 77 77 78 78 77 77 76 77 77 77 77 77 77 77 76 76 76 77 77 78 70 72 75 75 78 79 79 78 78 77 77
77 75 76 77 80 79 78 77 77 78 77 77 77 77 75 75 75 76 76 77 77 77 77 76 76 76 76 77 77 77 78 70 70 73 73 77 77 79 78 78 77 77 76
75 75 75 76 78 79 80 78 75 77 75 75 75 75 75 73 73 75 76 77 77 77 77 76 76 76 76 71 71 75 71 71 71 73 73 77 78 79 78 78 77 77 77
77 77 76 75 76 76 77 78 76 78 76 75 75 73 71 72 73 71 72 73 71 75 71 72 71 71 71 71 72 72 73 73 73 75 76 77 77 79 78 77 77 77 76
78 77 77 77 76 76 76 77 77 76 75 74 75 71 71 70 70 70 71 70 69 69 68 68 68 70 70 73 73 77 77 78 73 70 74 77 77 78 78 77 77 77 76
77 78 77 77 77 77 75 75 75 73 73 73 72 72 71 71 70 70 70 69 68 67 68 68 69 70 71 73 77 80 81 76 75 71 73 77 76 77 77 77 77 77 76
79 78 78 78 79 76 75 74 74 73 73 72 73 73 72 73 72 72 70 70 68 70 69 70 70 70 71 75 77 81 79 78 76 71 70 71 75 75 76 77 77 77 77
79 81 77 77 79 76 76 75 75 75 74 73 73 73 74 73 73 73 72 70 71 71 71 70 71 72 73 77 76 79 77 76 73 72 70 68 71 75 75 75 76 77 76
78 79 78 81 79 78 77 73 73 76 75 75 74 73 74 74 75 73 72 72 71 71 72 73 74 71 69 71 71 72 73 73 73 72 71 69 69 70 73 75 76 76 76
76 77 73 72 75 77 76 71 69 72 75 77 76 74 75 75 75 75 74 72 72 72 75 75 70 70 68 68 71 70 70 69 71 74 71 70 68 68 67 72 75 75 75
73 77 75 72 71 72 71 70 69 69 71 78 77 76 75 75 75 75 72 71 72 71 69 70 70 69 68 68 72 70 68 68 68 68 70 71 69 69 68 69 67 69 73
70 72 74 72 71 70 70 70 69 68 69 76 78 77 76 76 74 72 70 71 71 70 69 70 68 68 66 65 64 64 64 66 67 70 69 67 70 72 70 70 66 65 67
69 71 74 73 71 71 70 71 70 71 70 77 79 76 77 77 74 72 71 70 70 69 69 69 68 66 64 63 60 59 58 63 66 66 66 70 66 67 70 68 66 65 63
68 69 73 74 72 71 72 71 72 72 71 73 77 76 76 77 75 73 72 70 70 69 68 67 67 65 62 62 62 61 56 56 57 61 61 62 60 62 61 62 63 63 61
71 69 74 74 72 71 72 69 71 73 72 76 77 79 77 76 74 73 72 71 70 67 66 66 66 64 63 61 62 64 61 60 55 56 58 59 60 61 58 59 58 61 59
73 69 74 74 72 73 73 75 73 74 78 73 72 76 76 72 74 73 71 69 67 67 64 64 64 63 62 60 60 59 57 57 56 55 52 54 56 57 56 56 55 56 58
69 66 68 72 71 73 73 74 74 75 72 69 70 69 71 73 71 71 70 68 66 65 64 63 62 61 60 58 59 61 56 55 53 53 50 49 49 52 54 54 54 53 54

GFSSE_sfc_temp_165.txt.gz
Temp
76 77 80 80 80 80 80 80 79 79 79 79 79 79 79 79 79 79 79 79 79 80 81 80 80 80 80 80 79 79 79 80 80 80 80 80 79 79 80 80 79 77 78
79 79 80 79 79 80 80 79 79 78 78 79 79 79 79 79 79 79 79 79 80 80 80 80 80 80 80 80 79 79 79 79 79 80 80 80 80 80 80 80 79 77 78
78 78 80 79 79 79 79 79 78 78 78 78 78 79 79 79 79 79 79 79 80 80 80 80 80 80 80 80 79 79 78 78 79 80 79 74 74 80 80 80 79 78 78
78 78 79 79 79 79 79 78 78 78 78 78 78 79 79 79 79 79 79 79 80 80 80 80 80 80 80 79 79 78 78 79 79 79 75 77 79 80 80 80 79 79 78
78 78 78 79 79 79 79 78 78 78 78 78 78 78 78 78 78 78 79 79 80 80 80 80 80 79 79 79 78 78 78 79 79 79 75 75 74 80 80 80 80 79 78
77 78 79 79 79 79 79 78 78 78 78 78 78 78 78 78 78 78 78 79 80 80 80 79 78 78 78 78 78 78 78 79 79 75 76 76 75 79 80 79 79 79 78
76 77 78 79 78 79 79 78 78 78 78 78 78 78 78 78 78 78 78 79 79 80 79 78 78 77 77 78 78 78 78 79 75 74 76 76 76 78 79 79 79 78 78
76 77 79 79 78 78 78 78 78 78 78 78 78 78 78 78 78 78 78 78 79 79 79 78 77 77 77 77 77 77 78 79 76 74 75 74 76 78 79 79 78 77 78
77 78 78 78 79 78 78 78 78 77 77 77 77 77 77 78 77 77 77 78 78 77 77 77 77 77 76 76 77 77 77 78 69 72 78 74 78 79 79 78 78 77 77
75 76 77 76 77 79 76 78 77 77 77 77 77 77 77 77 77 77 76 76 77 77 77 76 76 76 76 76 76 76 77 76 69 71 73 74 78 79 78 78 77 77 76
75 74 76 75 77 78 78 77 77 78 77 77 77 77 76 73 74 75 75 77 77 77 76 76 76 76 76 76 76 77 77 69 69 71 72 77 78 79 78 77 77 76 76
74 75 74 76 76 77 80 76 74 76 75 74 75 74 73 73 72 74 75 76 76 77 77 76 76 76 76 69 69 74 69 70 70 72 72 77 78 78 78 77 77 76 76
76 74 74 75 76 76 78 76 75 76 75 75 75 76 76 74 72 72 71 72 71 75 70 72 71 70 70 69 70 70 71 71 71 73 75 77 77 78 78 77 76 76 75
75 74 74 75 75 76 77 76 76 75 76 75 76 76 74 72 70 70 71 70 69 69 67 67 67 69 69 72 71 72 74 73 74 72 74 77 77 78 78 77 77 76 75
74 75 74 74 74 76 75 76 76 75 75 76 75 74 71 70 70 70 69 69 68 67 66 66 67 68 69 71 72 75 79 74 72 73 70 77 76 77 77 77 77 77 76
76 74 74 74 74 75 75 76 76 75 75 74 74 71 71 70 69 69 68 68 67 66 66 67 68 68 69 71 73 77 78 73 73 70 69 71 75 75 76 77 77 77 76
73 76 74 75 74 75 71 72 72 73 72 71 71 71 71 70 69 69 68 67 67 67 68 68 69 69 69 72 72 77 76 73 73 71 69 68 71 75 75 76 77 77 76
73 71 76 78 77 75 71 71 70 71 71 72 72 71 72 71 71 69 69 69 68 68 68 68 68 68 68 69 69 69 69 71 71 70 69 68 68 69 73 75 75 76 76
71 72 71 74 75 74 70 68 67 69 69 72 72 71 72 72 72 71 70 70 69 68 68 69 68 68 67 67 69 67 67 67 68 71 69 68 67 67 66 70 73 74 75
69 71 71 71 71 72 69 68 67 66 67 68 73 72 72 73 73 72 70 69 69 68 69 69 68 67 67 67 70 67 65 65 66 66 67 69 69 68 67 67 67 69 73
67 68 68 69 69 69 68 68 67 66 66 66 68 71 72 73 73 72 72 68 69 69 69 69 67 66 64 64 64 62 63 64 64 63 64 65 68 68 66 64 64 62 64
68 67 68 70 69 69 69 69 69 67 67 68 68 70 72 73 73 73 71 69 70 68 68 67 67 64 63 62 60 58 58 62 62 62 62 63 60 62 63 63 61 61 60
66 66 69 70 70 70 71 70 69 70 69 69 70 72 72 75 75 73 71 71 69 69 69 67 67 66 61 60 60 60 55 56 56 59 57 57 56 58 58 60 59 59 58
64 69 69 71 70 70 71 70 69 69 67 69 74 70 71 74 75 73 72 71 71 68 67 66 66 64 64 61 59 61 58 60 56 54 56 56 57 57 54 56 54 56 55
65 66 69 71 70 71 71 72 71 71 75 73 75 72 72 72 73 73 72 70 69 67 65 64 63 63 62 60 59 57 57 57 58 54 51 53 53 52 52 52 51 50 52
61 64 64 70 70 70 70 72 71 71 73 70 70 69 68 69 69 72 71 69 66 64 64 63 61 61 60 58 58 57 57 58 54 52 50 47 48 49 50 49 51 49 49

GFSSE_sfc_temp_168.txt.gz
Temp
75 78 80 80 80 80 80 80 80 79 79 79 80 79 79 79 79 79 79 79 79 80 81 80 80 80 80 80 80 79 79 80 80 80 80 80 79 79 79 79 79 79 78
77 78 80 79 80 80 80 80 79 79 79 79 79 79 79 79 79 79 79 79 80 80 80 80 80 80 80 80 79 79 79 79 79 80 80 80 80 80 80 80 79 78 78
78 78 79 79 80 80 79 79 79 79 79 79 79 79 79 79 79 79 79 79 80 80 80 80 80 80 80 80 79 79 79 79 79 80 80 78 79 80 80 80 79 79 78
78 78 78 79 79 79 79 79 79 78 78 79 79 79 79 79 79 79 79 79 80 80 80 80 80 80 80 79 79 79 79 79 79 80 79 79 81 80 80 80 79 79 78
77 78 78 79 79 79 79 78 78 78 78 78 79 79 79 79 79 79 79 79 80 80 80 80 80 79 79 79 79 78 79 79 80 80 79 79 79 81 80 80 80 79 79
77 77 79 79 79 79 79 78 78 78 78 78 79 79 79 79 78 78 79 79 80 80 80 80 79 79 79 78 78 78 78 79 79 78 78 78 79 79 80 79 79 79 78
75 77 78 79 79 79 79 79 78 78 78 78 78 79 79 78 78 78 78 79 80 80 79 79 78 78 78 78 78 78 78 79 78 78 78 78 79 77 79 79 79 79 78
75 76 77 79 78 78 79 78 78 78 78 78 78 78 78 78 78 78 78 79 79 79 79 78 78 77 77 77 77 77 78 79 78 77 78 78 77 79 79 79 79 79 78
76 76 78 78 78 78 78 78 77 77 77 77 77 77 77 77 77 77 78 78 78 78 77 77 77 77 77 77 77 77 77 79 75 76 80 78 78 79 79 79 78 77 77
77 77 79 77 76 76 76 78 77 77 77 77 77 77 77 77 77 77 76 77 77 77 77 77 77 77 76 76 76 77 77 76 75 77 78 79 78 79 79 78 77 77 76
77 77 78 78 76 75 76 77 77 78 77 77 77 77 76 75 75 77 76 77 77 77 77 76 76 76 76 77 77 77 77 73 75 76 77 77 78 79 78 77 77 77 76
72 76 76 75 75 74 78 76 75 76 75 75 75 75 73 73 73 75 76 77 77 77 77 76 76 76 76 73 73 76 74 75 75 76 76 77 78 79 78 77 77 76 76
74 74 76 76 75 74 75 76 75 75 75 73 74 73 73 75 74 74 73 74 73 76 73 75 74 73 73 73 74 74 75 75 75 76 77 77 78 79 78 77 76 76 75
74 75 76 76 75 74 76 75 75 75 74 73 73 74 75 75 73 72 72 72 71 72 71 71 71 71 72 73 74 75 76 77 76 75 77 77 77 78 78 77 77 76 75
72 74 74 75 74 75 74 75 74 75 75 75 74 76 76 74 73 71 71 71 70 70 70 69 70 71 72 73 75 76 77 76 75 76 75 77 76 77 78 78 77 77 76
72 73 74 74 74 74 74 74 73 72 74 74 74 75 75 73 71 70 70 70 70 69 69 69 70 70 71 73 75 77 78 76 75 74 75 76 75 75 76 77 77 77 76
71 72 72 73 74 74 73 72 72 71 72 73 73 73 73 71 71 71 70 69 70 69 69 69 70 70 71 74 75 77 76 75 74 73 73 73 75 75 75 76 77 77 77
69 69 72 76 74 74 74 73 72 72 71 71 72 73 71 71 71 71 70 70 70 69 69 69 69 70 71 72 73 73 73 74 74 73 73 72 73 73 73 74 75 76 76
71 69 69 72 73 73 74 73 72 72 71 70 70 70 71 71 71 70 70 70 70 69 69 69 69 70 70 70 71 70 70 71 72 74 72 71 71 71 71 71 72 73 74
64 64 65 70 72 73 73 72 71 70 70 69 70 70 70 71 71 70 70 70 70 69 68 69 70 70 70 70 71 69 68 68 69 69 69 71 70 69 69 68 68 71 73
65 62 63 67 69 70 68 69 69 68 68 68 68 70 70 71 71 70 70 69 69 69 69 70 70 69 68 68 67 66 66 65 64 65 66 66 66 66 66 65 66 66 68
64 64 65 67 67 70 70 71 70 70 69 69 68 69 69 71 71 72 71 68 69 70 69 69 69 67 66 65 65 64 63 65 64 63 63 63 61 64 64 64 63 62 62
62 62 65 67 68 70 70 70 67 68 67 67 67 67 71 71 71 72 71 70 69 70 70 69 69 68 64 65 65 65 60 62 61 62 59 59 59 60 61 60 60 59 59
61 63 64 67 68 69 69 68 67 67 66 66 67 68 69 70 71 72 71 71 71 71 70 70 70 68 67 65 63 63 62 64 61 58 59 58 59 59 57 58 57 57 57
61 59 61 67 68 69 68 70 68 68 70 68 68 68 68 69 71 73 72 71 71 71 70 69 67 66 67 65 64 62 61 61 61 61 55 55 57 57 56 55 55 55 55
59 61 59 64 68 68 69 70 69 69 69 67 67 68 68 69 68 71 72 72 70 68 68 68 67 65 65 63 63 62 62 63 60 59 56 54 55 55 54 53 53 54 54

GFSSE_sfc_temp_171.txt.gz
Temp
85 88 80 81 80 80 81 81 80 81 80 80 80 80 79 79 79 79 79 79 79 80 81 81 81 81 81 80 80 80 80 80 80 80 80 80 79 79 79 80 79 86 79
88 88 80 80 80 81 80 80 80 80 80 80 80 79 79 79 79 79 79 79 80 81 81 81 81 80 80 80 80 80 80 79 80 80 80 80 80 79 79 80 79 84 79
88 87 84 80 80 80 80 80 79 79 79 79 79 79 79 79 79 79 79 79 80 81 81 81 81 80 80 80 79 79 79 79 79 80 80 90 89 80 80 80 79 79 79
88 86 87 79 80 80 80 79 79 79 79 79 79 79 79 79 79 79 79 79 80 81 81 81 81 80 80 80 79 79 79 79 79 80 88 89 89 80 80 80 80 79 79
87 86 86 79 80 80 79 79 79 79 79 79 79 79 79 79 79 79 79 79 80 81 81 81 80 80 79 79 79 79 79 79 80 83 89 89 89 85 80 80 80 79 79
87 88 82 79 79 79 79 79 78 78 79 79 79 79 79 79 78 78 79 79 80 81 81 80 80 79 79 79 79 79 79 79 80 90 87 87 87 81 80 80 80 79 79
87 87 86 79 79 79 79 79 78 78 78 78 79 79 79 78 78 78 79 79 80 80 80 79 79 78 78 78 79 79 79 80 89 90 89 88 88 78 80 80 79 79 79
87 87 86 80 79 79 79 78 78 78 78 78 78 78 78 78 78 78 78 79 79 79 79 79 78 78 77 78 78 78 79 79 87 89 88 89 79 79 80 79 79 78 78
88 85 86 87 82 79 78 78 78 78 78 78 78 78 78 78 78 78 78 78 79 78 78 78 78 77 77 77 78 78 78 79 91 90 89 90 78 79 79 78 78 77 77
87 88 88 83 88 86 84 78 78 78 77 77 77 77 77 78 78 78 76 77 78 78 78 77 77 77 77 77 77 77 78 79 90 90 90 88 78 79 79 78 77 77 77
85 86 88 85 83 86 87 83 78 78 78 77 78 77 77 86 84 82 81 77 77 77 77 77 77 77 77 77 77 78 78 90 90 91 91 78 78 79 78 78 77 77 76
82 83 88 84 84 85 86 85 84 84 84 83 84 82 85 85 85 85 81 77 77 77 77 77 77 77 78 88 87 80 89 89 90 90 90 78 78 79 78 77 77 76 76
85 84 85 83 83 84 86 85 84 85 85 84 83 83 83 83 83 84 85 84 84 79 85 83 83 86 85 87 88 88 89 88 90 88 85 78 78 79 78 77 77 76 76
83 83 84 83 80 80 86 84 83 84 83 83 82 82 82 83 79 82 84 85 83 85 84 83 86 83 83 85 86 87 87 88 88 88 85 77 77 78 78 78 77 76 76
84 83 83 83 81 79 81 83 82 81 82 83 83 83 84 83 79 78 82 84 84 85 84 83 83 83 83 84 86 85 87 86 85 88 88 77 77 77 78 78 78 77 76
84 84 85 82 81 82 81 81 81 81 81 82 83 83 83 83 79 76 81 82 83 83 84 83 83 83 84 85 85 85 86 86 86 85 89 85 76 76 77 78 78 77 77
82 83 83 82 82 80 80 81 81 81 82 81 82 81 81 80 78 79 81 82 83 82 80 80 80 81 83 85 84 86 86 84 85 85 85 87 83 75 76 76 77 78 77
79 78 82 86 83 80 80 81 81 81 80 80 81 82 80 78 77 78 81 81 83 81 82 81 81 81 82 83 84 85 85 85 85 84 85 85 85 86 77 75 76 76 77
79 77 76 81 82 79 80 81 80 79 79 81 81 80 78 76 76 77 78 79 79 81 81 81 80 80 80 81 83 81 81 82 82 85 82 82 82 83 83 74 72 73 74
78 76 74 79 80 80 80 77 78 77 79 78 81 79 78 78 77 76 78 78 78 79 80 80 78 80 81 81 80 77 78 79 80 80 81 83 79 79 80 78 81 77 72
76 76 75 74 77 78 75 74 73 72 74 73 74 78 78 78 77 76 78 78 77 77 78 78 79 77 77 78 76 75 74 74 74 76 78 78 76 76 76 76 78 78 77
74 74 75 75 76 78 79 76 75 75 75 74 73 76 77 77 78 77 77 77 77 77 76 77 77 78 79 78 78 78 72 72 74 73 75 75 72 75 74 72 72 70 72
74 73 76 76 77 76 79 78 73 72 71 69 71 74 76 77 78 78 77 77 75 77 77 78 78 77 78 77 76 78 73 74 71 73 69 72 69 71 71 70 69 69 68
73 74 73 74 76 76 77 74 72 71 69 71 74 75 74 76 77 78 77 77 75 75 76 78 79 79 79 76 74 75 75 77 73 65 69 68 70 69 66 70 68 67 66
74 73 72 71 74 77 76 76 74 73 75 77 75 74 74 74 76 77 76 77 77 76 75 78 77 76 76 72 70 71 72 74 73 74 68 65 68 69 69 69 67 66 65
73 74 73 70 73 75 75 75 74 74 75 75 74 74 74 74 76 76 77 77 78 77 76 76 76 75 71 69 69 74 74 76 73 72 69 68 68 66 67 68 66 65 65

GFSSE_sfc_temp_174.txt.gz
Temp
97 97 81 81 80 81 81 81 81 80 80 79 80 80 79 79 79 80 80 80 80 81 81 81 81 81 81 81 80 80 80 80 80 80 80 80 80 80 80 80 80 91 79
100 96 80 80 80 81 81 81 80 80 80 80 80 79 79 79 80 80 80 80 80 81 81 81 81 81 81 81 80 80 80 80 80 80 80 80 80 80 80 80 80 85 79
100 96 88 80 80 81 81 80 80 80 80 80 80 79 79 79 80 79 79 80 80 81 81 81 81 81 81 81 80 80 80 80 80 80 81 95 94 80 80 80 80 79 79
99 95 93 80 80 80 80 80 80 80 80 80 79 79 79 79 79 79 79 80 81 81 81 81 81 81 81 80 80 80 80 80 80 80 91 96 96 80 81 81 80 80 80
97 95 93 80 80 80 80 79 79 79 79 79 79 79 79 79 79 79 79 80 81 81 81 81 81 80 80 80 79 79 79 80 80 83 97 96 97 85 81 81 81 80 80
95 97 83 80 80 80 80 79 79 79 79 79 79 79 79 79 79 79 79 80 81 81 81 81 80 80 80 79 79 79 79 80 79 97 95 92 93 80 81 80 80 80 80
98 97 90 79 79 80 80 79 79 79 79 79 79 79 79 79 79 79 79 80 80 81 81 80 79 79 79 79 79 79 79 80 90 97 96 94 93 80 81 80 80 80 79
99 98 93 81 79 79 79 79 79 78 79 79 79 79 79 79 79 79 79 79 80 80 80 79 79 79 78 78 79 79 80 80 91 97 97 96 80 80 80 80 78 78 78
101 99 96 92 85 79 79 78 78 78 78 78 78 78 78 78 78 78 79 79 79 79 79 79 78 78 78 78 79 79 79 80 93 100 97 96 78 80 79 79 78 78 77
99 99 98 95 94 91 89 78 78 78 78 77 78 78 78 78 78 78 77 78 79 78 78 78 78 78 78 78 78 78 79 80 94 98 98 91 79 80 79 79 78 77 77
97 98 99 98 95 95 96 87 79 78 78 77 79 78 78 90 87 85 83 78 78 78 78 78 78 77 77 78 78 78 79 95 99 98 99 78 79 80 79 78 78 77 77
93 97 99 93 95 96 97 91 89 89 89 88 88 85 90 91 90 91 85 78 78 78 78 78 77 77 78 93 90 80 92 97 98 98 97 78 79 79 79 78 77 77 77
96 95 97 94 91 94 96 93 93 93 91 90 89 88 89 91 91 92 91 87 87 80 88 84 84 89 90 95 96 96 97 96 97 97 87 78 78 79 79 78 77 77 76
94 93 93 94 91 89 96 94 95 94 93 92 91 88 89 90 89 89 92 92 89 91 91 91 93 91 91 92 95 96 96 96 97 95 88 78 78 79 79 78 78 77 77
92 93 92 91 88 89 89 93 93 93 93 93 93 90 91 90 88 90 91 93 92 94 92 91 92 90 89 91 94 94 94 94 94 95 95 78 77 78 79 79 78 78 77
91 91 92 92 90 88 87 89 90 90 92 92 92 91 89 90 89 89 88 90 91 93 93 92 91 90 91 93 91 92 92 94 92 93 95 86 77 77 78 78 78 78 78
91 91 88 88 91 88 84 88 90 91 93 91 92 89 88 88 88 86 88 90 91 91 89 89 89 89 90 92 91 92 92 91 92 90 92 94 85 76 77 77 78 78 78
89 88 88 91 93 88 86 88 90 92 91 92 92 91 88 88 87 84 88 89 91 89 89 89 88 89 89 91 90 92 91 91 90 89 91 91 91 92 78 77 76 76 77
88 87 86 86 88 89 87 88 88 88 89 92 92 92 87 87 86 85 88 89 86 86 87 87 87 88 87 89 91 86 86 89 88 92 89 87 88 88 90 74 74 73 74
87 86 85 85 85 87 89 86 85 81 84 90 90 91 88 87 85 83 86 86 85 85 87 88 85 88 89 89 90 85 87 88 87 88 86 87 89 85 86 84 84 75 71
85 83 82 82 81 85 88 81 80 78 80 85 89 88 88 86 84 82 86 83 83 84 84 84 85 83 86 88 84 82 82 81 81 84 86 87 84 84 84 85 86 85 80
82 82 82 82 81 81 87 85 82 81 80 84 84 83 85 85 84 84 83 84 81 84 80 81 82 85 86 86 83 81 74 78 82 82 84 83 80 83 83 81 79 78 78
81 81 81 81 82 81 83 86 83 78 78 73 73 74 83 84 84 83 82 85 82 84 83 81 82 82 84 84 83 82 73 72 78 79 76 80 76 80 81 78 77 76 74
81 83 82 81 80 83 82 84 82 81 80 81 81 76 76 81 83 84 82 82 80 84 82 80 84 84 84 83 84 84 83 82 77 72 76 75 75 75 73 78 79 76 72
81 80 80 80 79 80 83 82 83 79 82 85 77 74 73 75 81 84 83 81 81 84 84 84 83 81 80 86 84 82 77 80 79 74 77 74 75 77 76 75 76 75 73
82 82 80 78 78 80 81 82 80 80 79 76 79 75 73 73 75 81 83 82 82 82 83 82 82 80 80 82 83 80 80 73 74 77 76 77 75 74 76 74 75 75 73